SCP
0 0 0 0 0 0 0 0 0 0 0 0 0 0 0 0 0 0 0 0 0 0 0 0 0 0 0 0 0 0 0 0 0 0 0 0 0 0
0 0 0 0 0 0 0 0 0 0 0 0 0 0 0 0 0 0 0 0 0 0 0 0 0 0 0 0 0 0 0 0 0 0 0 0 0 0
0 0 0 0 0 0 0 0 0 0 0 0 0 0 0 0 0 0 0 0 0 0 0 0 0 0 0 0 0 0 0 0 0 0 0 0 0 0
0 0 0 0 0 0 0 0 0 0 0 0 0 0 0 0 0 0 0 0 0 0 0 0 0 0 0 0 0 0 0 0 0 0 0 0 0 0
0 0 0 0 0 0 0 0 0 0 0 0 0 0 0 0 0 0 0 0 0 0 0 0 0 0 0 0 0 0 0 0 0 0 0 0 0 0
0 0 0 0 0 0 0 0 0 0 0 0 0 0 0 0 0 0 0 0 0 0 0 0 0 0 0 0 0 0 0 0 0 0 0 0 0 0
0 0 0 0 0 0 0 0 0 0 0 0 0 0 0 0 0 0 0 0 0 0 0 0 0 0 0 0 0 0 0 0 0 0 0 0 0 0
0 0 0 0 0 0 0 0 0 0 0 0 0 0 0 0 0 0 0 0 0 0 0 0 0 0 0 0 0 0 0 0 0 0 0 0 0 0
0 0 0 0 0 0 0 0 0 0 0 0 0 0 0 0 0 0 0 0 0 0 0 0 0 0 0 0 0 0 0 0 0 0 0 0 0 0
0 0 0 0 0 0 0 0 0 0 0 0 0 0 0 0 0 0 0 0 0 0 0 0 0 0 0 0 0 0 0 0 0 0 0 0 0 0
0 0 0 0 0 0 0 0 0 0 0 0 0 0 0 0 0 0 0 0 0 0 0 0 0 0 0 0 0 0 0 0 0 0 0 0 0 0
0 0 0 0 0 0 0 0 0 0 0 0 0 0 0 0 0 0 0 0 0 0 0 0 0 0 0 0 0 0 0 0 0 0 0 0 0 0
0 0 0 0 0 0 0 0 0 0 0 0 0 0 0 0 0 0 0 0 0 0 0 0 0 0 0 0 0 0 0 0 0 0 0 0 0 0
0 0 0 0 0 0 0 0 0 0 0 0 0 0 0 0 0 0 0 0 0 0 0 0 0 0 0 0 0 0 0 0 0 0 0 0 0 0
0 0 0 0 0 0 0 0 0 0 0 0 0 0 0 0 0 0 0 0 0 0 0 0 0 0 0 0 0 0 0 0 0 0 0 0 0 0
0 0 0 0 0 0 0 0 0 0 0 0 0 0 0 0 0 0 0 0 0 0 0 0 0 0 0 0 0 0 0 0 0 0 0 0 0 0
0 0 0 0 0 0 0 0 0 0 0 0 0 0 0 0 0 0 0 0 0 0 0 0 0 0 0 0 0 0 0 0 0 0 0 -0 0 0
0 0 0 0 0 0 0 0 0 0 0 0 0 0 0 0 0 0 0 0 0 0 0 0 0 0 0 0 0 0 0 0 0 0 0 -0 -0 0
0 0 0 0 0 0 0 0 0 0 0 0 0 0 0 0 0 0 0 0 0 0 0 0 0 0 0 0 0 0 0 0 0 0 0 0 -0 -0
0 0 0 0 0 0 0 0 0 0 0 0 0 0 0 0 0 0 0 0 0 0 0 0 0 0 0 -0 -0 0 0 0 0 -0 -0 0 -0 -0
0 0 0 0 0 0 0 0 0 0 0 0 0 0 0 0 0 0 0 0 0 0 0 0 0 0 0 -0 -0 -0 0 -0 -0 -0 -0 -0 -0 -0
0 0 0 0 0 0 0 0 0 0 0 0 0 0 0 0 0 0 0 0 0 0 0 0 0 0 0 -0 -0 -0 -0 -0 -0 -0 -0 -0 -0 -0
0 0 0 0 0 0 0 0 0 0 0 0 0 0 0 0 0 0 0 0 0 0 0 0 0 -0 -0 -0 -0 -0 -0 -0 -0 -0 -0 -0 -0 -0
Wind_Speed_500mb
14 12 13 14 15 16 18 18 17 12 19 17 29 34 40 47 54 60 62 63 62 62 63 64 65 66 67 69 70 70 69 64 64 63 63 63 63 62
16 16 17 19 21 22 24 26 28 28 25 33 38 47 56 62 65 69 71 72 74 76 77 79 80 80 80 79 78 77 73 69 69 70 70 68 65 66
19 20 21 23 26 29 31 33 35 37 46 57 57 60 64 69 72 73 77 83 86 85 85 85 86 88 89 89 87 83 78 76 76 73 71 69 70 69
23 24 25 28 32 34 36 37 39 41 48 61 65 69 71 72 77 80 82 83 87 88 88 90 92 96 98 97 95 90 87 81 76 73 72 72 72 72
27 29 31 34 36 37 38 42 45 48 52 59 70 68 70 71 73 75 80 82 84 90 95 96 94 94 91 86 89 87 86 80 75 74 75 76 77 76
34 35 37 40 41 43 46 48 51 54 58 63 68 69 63 64 65 70 76 80 85 89 95 90 81 80 79 77 79 80 85 82 78 77 78 81 82 80
39 41 40 41 43 47 50 51 51 53 51 56 63 66 63 66 73 70 84 95 90 76 76 77 70 73 79 77 82 82 81 83 86 86 86 87 84 84
38 39 40 43 46 47 49 50 51 52 55 56 62 65 68 73 75 62 60 65 82 79 67 91 83 106 99 82 81 91 94 83 88 89 90 90 90 89
36 39 41 44 45 47 49 51 54 54 51 54 62 61 62 54 57 70 81 93 109 128 110 102 95 104 108 107 97 92 93 100 103 98 92 94 97 98
35 38 40 43 44 47 51 55 57 57 54 48 49 62 68 75 79 89 101 109 118 116 100 84 92 96 94 89 81 82 87 90 93 92 93 91 88 88
32 37 41 43 44 47 52 57 57 63 67 68 62 64 77 80 85 86 97 90 95 97 92 75 87 85 82 97 108 105 95 92 85 87 92 93 94 93
35 39 43 48 48 47 42 47 55 67 77 79 85 87 86 92 88 80 72 70 75 84 92 70 86 89 95 98 90 88 95 86 84 87 87 88 86 85
40 45 48 50 48 39 43 55 63 63 72 83 88 94 93 90 86 78 70 70 80 82 88 70 83 82 78 86 107 99 93 104 90 89 90 88 85 82
46 49 53 48 44 48 52 55 56 59 78 86 87 87 86 84 81 80 81 79 72 79 81 65 74 72 74 91 94 97 100 103 88 89 97 89 79 83
46 46 47 48 53 65 72 52 60 75 74 75 77 77 75 77 79 83 83 79 83 84 67 62 61 71 77 81 88 96 95 100 101 76 78 92 91 90
56 59 68 67 74 68 76 76 71 68 66 66 68 70 71 76 80 76 78 82 84 88 82 63 56 72 71 79 80 92 95 86 100 88 90 93 92 95
55 70 76 75 74 76 73 69 67 63 63 63 63 68 72 71 73 72 74 77 74 81 84 82 75 72 72 74 81 83 91 92 84 89 93 99 103 105
57 67 71 71 70 69 69 70 67 63 60 61 64 63 64 67 71 73 71 68 70 72 74 78 81 83 83 79 53 68 77 86 96 102 97 93 112 106
61 65 66 68 68 66 65 65 65 61 59 60 59 61 64 67 68 70 70 67 70 70 74 80 77 70 75 85 88 56 78 95 97 101 98 96 104 122
57 59 60 59 59 59 60 60 60 60 59 59 59 60 60 64 69 69 68 67 71 76 80 79 71 69 67 84 108 114 69 75 88 101 110 112 114 108
54 53 52 53 54 55 56 57 57 58 58 58 59 61 63 64 68 68 69 71 70 72 78 84 82 78 82 84 87 105 106 83 76 85 99 110 119 117
54 54 53 53 54 54 53 55 57 57 56 58 61 62 63 63 65 67 69 71 73 78 82 84 84 84 82 75 89 103 113 110 97 99 83 82 94 94
54 56 55 54 53 51 51 53 54 56 55 57 60 61 63 64 64 68 70 71 74 79 82 87 87 84 84 81 86 98 109 113 116 122 123 85 78 83
Wind_Direction_500mb
246 260 275 286 294 297 298 302 298 301 288 289 300 296 300 302 304 304 304 304 303 302 302 301 301 304 305 306 304 301 299 296 294 291 289 289 290 291
256 270 281 289 294 296 298 299 297 288 275 282 280 286 293 299 301 302 302 301 301 301 301 301 301 301 302 301 300 298 296 292 289 288 285 284 287 289
259 270 279 287 292 296 297 298 295 291 286 293 294 297 296 299 300 300 300 300 300 300 300 299 299 298 299 300 300 298 293 290 287 285 282 280 285 286
266 275 281 286 291 294 294 293 291 290 289 290 296 298 298 301 299 298 298 297 298 300 301 301 301 302 302 301 300 298 295 291 286 282 280 279 282 285
268 275 281 285 288 289 288 290 292 291 291 291 294 296 297 302 307 306 305 304 302 302 303 304 302 301 299 295 295 294 295 291 285 284 282 281 283 283
269 274 280 284 286 289 290 291 291 291 294 296 300 304 305 305 302 302 298 295 295 298 301 303 300 296 294 294 292 292 296 293 288 284 281 280 281 280
272 276 281 285 287 288 291 294 295 297 296 295 296 300 300 302 304 306 299 302 304 303 303 303 301 298 298 294 290 289 288 287 287 286 284 282 281 279
272 280 283 285 287 291 293 294 296 296 298 298 300 300 299 298 304 300 295 296 302 298 295 291 291 292 294 290 290 291 288 284 287 283 281 279 279 277
276 280 283 286 290 292 293 294 294 295 293 292 292 299 301 294 291 293 293 294 293 294 301 299 298 291 290 291 291 288 285 285 285 285 284 284 283 281
277 281 284 288 293 297 298 298 298 299 299 296 285 285 285 285 293 296 296 296 296 296 299 296 299 295 297 297 294 290 288 288 288 286 283 281 281 283
282 285 289 293 297 298 299 305 306 299 296 295 296 287 291 298 299 302 300 302 300 300 301 298 297 296 293 287 287 289 290 290 285 281 283 283 283 284
293 297 298 299 301 308 317 305 297 295 303 303 295 300 302 304 305 305 304 295 295 297 302 300 297 298 300 301 298 293 295 292 289 287 286 284 285 284
299 301 299 302 308 309 300 293 295 304 297 296 302 305 308 309 311 309 305 300 298 294 303 300 298 299 293 293 296 298 298 298 296 293 291 287 285 282
299 298 302 312 302 300 301 301 302 298 296 302 305 307 310 311 311 309 308 308 304 301 308 306 298 297 295 296 296 300 298 299 297 296 296 297 290 288
303 308 302 297 303 303 309 306 301 302 303 304 306 307 310 311 310 310 311 311 311 311 311 302 303 293 295 292 292 293 297 297 301 304 296 296 296 296
314 312 305 302 304 303 305 306 305 304 304 305 307 309 309 309 310 313 314 316 314 313 314 317 302 303 299 294 291 291 293 291 303 305 306 305 303 301
311 298 299 302 303 305 305 304 305 305 305 307 306 306 307 310 313 316 316 317 313 313 315 318 319 314 309 303 295 294 297 300 301 300 300 294 296 298
297 297 300 302 304 305 305 304 305 306 305 304 306 309 312 314 315 316 316 315 307 308 309 314 316 316 317 311 297 298 297 294 301 304 296 291 296 308
299 302 302 302 302 302 302 303 304 306 304 307 310 312 315 314 315 317 316 313 307 307 308 313 315 312 309 304 311 305 297 298 301 305 303 296 291 301
303 303 303 303 304 305 305 304 306 307 308 310 312 314 316 319 318 316 313 309 309 309 309 313 309 307 303 301 304 314 308 299 299 298 299 302 301 299
312 310 307 307 308 307 306 307 307 309 312 315 317 319 318 318 316 317 314 312 310 308 306 307 315 318 313 312 300 306 322 319 300 296 299 297 297 301
313 311 311 311 311 309 309 309 309 311 314 315 316 317 318 318 315 316 314 309 308 307 309 316 322 320 314 303 299 304 318 328 332 328 310 298 296 297
313 312 312 312 312 311 309 309 310 311 313 315 315 316 317 316 320 319 317 317 318 319 319 318 321 321 312 307 304 307 315 323 326 326 331 323 307 301
Wind_Speed_850mb
14 12 13 14 15 16 18 18 17 12 19 17 29 34 40 47 54 60 62 63 62 62 63 64 65 66 67 69 70 70 69 64 64 63 63 63 63 62
16 16 17 19 21 22 24 26 28 28 25 33 38 47 56 62 65 69 71 72 74 76 77 79 80 80 80 79 78 77 73 69 69 70 70 68 65 66
19 20 21 23 26 29 31 33 35 37 46 57 57 60 64 69 72 73 77 83 86 85 85 85 86 88 89 89 87 83 78 76 76 73 71 69 70 69
23 24 25 28 32 34 36 37 39 41 48 61 65 69 71 72 77 80 82 83 87 88 88 90 92 96 98 97 95 90 87 81 76 73 72 72 72 72
27 29 31 34 36 37 38 42 45 48 52 59 70 68 70 71 73 75 80 82 84 90 95 96 94 94 91 86 89 87 86 80 75 74 75 76 77 76
34 35 37 40 41 43 46 48 51 54 58 63 68 69 63 64 65 70 76 80 85 89 95 90 81 80 79 77 79 80 85 82 78 77 78 81 82 80
39 41 40 41 43 47 50 51 51 53 51 56 63 66 63 66 73 70 84 95 90 76 76 77 70 73 79 77 82 82 81 83 86 86 86 87 84 84
38 39 40 43 46 47 49 50 51 52 55 56 62 65 68 73 75 62 60 65 82 79 67 91 83 106 99 82 81 91 94 83 88 89 90 90 90 89
36 39 41 44 45 47 49 51 54 54 51 54 62 61 62 54 57 70 81 93 109 128 110 102 95 104 108 107 97 92 93 100 103 98 92 94 97 98
35 38 40 43 44 47 51 55 57 57 54 48 49 62 68 75 79 89 101 109 118 116 100 84 92 96 94 89 81 82 87 90 93 92 93 91 88 88
32 37 41 43 44 47 52 57 57 63 67 68 62 64 77 80 85 86 97 90 95 97 92 75 87 85 82 97 108 105 95 92 85 87 92 93 94 93
35 39 43 48 48 47 42 47 55 67 77 79 85 87 86 92 88 80 72 70 75 84 92 70 86 89 95 98 90 88 95 86 84 87 87 88 86 85
40 45 48 50 48 39 43 55 63 63 72 83 88 94 93 90 86 78 70 70 80 82 88 70 83 82 78 86 107 99 93 104 90 89 90 88 85 82
46 49 53 48 44 48 52 55 56 59 78 86 87 87 86 84 81 80 81 79 72 79 81 65 74 72 74 91 94 97 100 103 88 89 97 89 79 83
46 46 47 48 53 65 72 52 60 75 74 75 77 77 75 77 79 83 83 79 83 84 67 62 61 71 77 81 88 96 95 100 101 76 78 92 91 90
56 59 68 67 74 68 76 76 71 68 66 66 68 70 71 76 80 76 78 82 84 88 82 63 56 72 71 79 80 92 95 86 100 88 90 93 92 95
55 70 76 75 74 76 73 69 67 63 63 63 63 68 72 71 73 72 74 77 74 81 84 82 75 72 72 74 81 83 91 92 84 89 93 99 103 105
57 67 71 71 70 69 69 70 67 63 60 61 64 63 64 67 71 73 71 68 70 72 74 78 81 83 83 79 53 68 77 86 96 102 97 93 112 106
61 65 66 68 68 66 65 65 65 61 59 60 59 61 64 67 68 70 70 67 70 70 74 80 77 70 75 85 88 56 78 95 97 101 98 96 104 122
57 59 60 59 59 59 60 60 60 60 59 59 59 60 60 64 69 69 68 67 71 76 80 79 71 69 67 84 108 114 69 75 88 101 110 112 114 108
54 53 52 53 54 55 56 57 57 58 58 58 59 61 63 64 68 68 69 71 70 72 78 84 82 78 82 84 87 105 106 83 76 85 99 110 119 117
54 54 53 53 54 54 53 55 57 57 56 58 61 62 63 63 65 67 69 71 73 78 82 84 84 84 82 75 89 103 113 110 97 99 83 82 94 94
54 56 55 54 53 51 51 53 54 56 55 57 60 61 63 64 64 68 70 71 74 79 82 87 87 84 84 81 86 98 109 113 116 122 123 85 78 83
Wind_Direction_850mb
246 260 275 286 294 297 298 302 298 301 288 289 300 296 300 302 304 304 304 304 303 302 302 301 301 304 305 306 304 301 299 296 294 291 289 289 290 291
256 270 281 289 294 296 298 299 297 288 275 282 280 286 293 299 301 302 302 301 301 301 301 301 301 301 302 301 300 298 296 292 289 288 285 284 287 289
259 270 279 287 292 296 297 298 295 291 286 293 294 297 296 299 300 300 300 300 300 300 300 299 299 298 299 300 300 298 293 290 287 285 282 280 285 286
266 275 281 286 291 294 294 293 291 290 289 290 296 298 298 301 299 298 298 297 298 300 301 301 301 302 302 301 300 298 295 291 286 282 280 279 282 285
268 275 281 285 288 289 288 290 292 291 291 291 294 296 297 302 307 306 305 304 302 302 303 304 302 301 299 295 295 294 295 291 285 284 282 281 283 283
269 274 280 284 286 289 290 291 291 291 294 296 300 304 305 305 302 302 298 295 295 298 301 303 300 296 294 294 292 292 296 293 288 284 281 280 281 280
272 276 281 285 287 288 291 294 295 297 296 295 296 300 300 302 304 306 299 302 304 303 303 303 301 298 298 294 290 289 288 287 287 286 284 282 281 279
272 280 283 285 287 291 293 294 296 296 298 298 300 300 299 298 304 300 295 296 302 298 295 291 291 292 294 290 290 291 288 284 287 283 281 279 279 277
276 280 283 286 290 292 293 294 294 295 293 292 292 299 301 294 291 293 293 294 293 294 301 299 298 291 290 291 291 288 285 285 285 285 284 284 283 281
277 281 284 288 293 297 298 298 298 299 299 296 285 285 285 285 293 296 296 296 296 296 299 296 299 295 297 297 294 290 288 288 288 286 283 281 281 283
282 285 289 293 297 298 299 305 306 299 296 295 296 287 291 298 299 302 300 302 300 300 301 298 297 296 293 287 287 289 290 290 285 281 283 283 283 284
293 297 298 299 301 308 317 305 297 295 303 303 295 300 302 304 305 305 304 295 295 297 302 300 297 298 300 301 298 293 295 292 289 287 286 284 285 284
299 301 299 302 308 309 300 293 295 304 297 296 302 305 308 309 311 309 305 300 298 294 303 300 298 299 293 293 296 298 298 298 296 293 291 287 285 282
299 298 302 312 302 300 301 301 302 298 296 302 305 307 310 311 311 309 308 308 304 301 308 306 298 297 295 296 296 300 298 299 297 296 296 297 290 288
303 308 302 297 303 303 309 306 301 302 303 304 306 307 310 311 310 310 311 311 311 311 311 302 303 293 295 292 292 293 297 297 301 304 296 296 296 296
314 312 305 302 304 303 305 306 305 304 304 305 307 309 309 309 310 313 314 316 314 313 314 317 302 303 299 294 291 291 293 291 303 305 306 305 303 301
311 298 299 302 303 305 305 304 305 305 305 307 306 306 307 310 313 316 316 317 313 313 315 318 319 314 309 303 295 294 297 300 301 300 300 294 296 298
297 297 300 302 304 305 305 304 305 306 305 304 306 309 312 314 315 316 316 315 307 308 309 314 316 316 317 311 297 298 297 294 301 304 296 291 296 308
299 302 302 302 302 302 302 303 304 306 304 307 310 312 315 314 315 317 316 313 307 307 308 313 315 312 309 304 311 305 297 298 301 305 303 296 291 301
303 303 303 303 304 305 305 304 306 307 308 310 312 314 316 319 318 316 313 309 309 309 309 313 309 307 303 301 304 314 308 299 299 298 299 302 301 299
312 310 307 307 308 307 306 307 307 309 312 315 317 319 318 318 316 317 314 312 310 308 306 307 315 318 313 312 300 306 322 319 300 296 299 297 297 301
313 311 311 311 311 309 309 309 309 311 314 315 316 317 318 318 315 316 314 309 308 307 309 316 322 320 314 303 299 304 318 328 332 328 310 298 296 297
313 312 312 312 312 311 309 309 310 311 313 315 315 316 317 316 320 319 317 317 318 319 319 318 321 321 312 307 304 307 315 323 326 326 331 323 307 301